Location: Cubitt Town
(51.4833°N, 0.0000°E)
Time: 00:42:38
(UTC+00:00)

TSX-5 - Pass Details

Date: 15 May 2026
Orbit: 387 x 993 km, 68.9° (Epoch: 9 June)

Event Time Altitude Azimuth Distance (km) Brightness Sun altitude
Rises 22:25:29 0° 326° (NW) 2,291 8.6 -16.7°
Reaches altitude 10° 22:27:27 10° 327° (NNW) 1,447 7.2 -16.8°
Maximum altitude 22:30:35 86° 57° (ENE) 423 3.2 -17.0°
Enters shadow 22:31:22 49° 142° (SE) 554 3.4 -17.1°
